sat.trackr.live / text

‹ back to catalog

INMARSAT 4-F2 (SOUTHPA*)

NORAD 28899 · 2005-044A

PAYLOAD ACTIVE UNKNOWN

§ Identity

Operator
Country
IM
Launch date
2005-11-08
Launch site
SEAL
Launch vehicle
Mass (kg)
RCS (m²)
4.47

Purposes: comms, nav

External: N2YO · Heavens-Above · Gunter

§ Orbital elements

Epoch: 2026-09-19T17:39:09.897408Z

Period
1,436.09 min
Inclination
5.2178°
Eccentricity
0.0002398
Mean motion
1.00272555 rev/d
Perigee alt
35,776.3 km
Apogee alt
35,796.5 km
Semi-major
42,164.5 km
B*
0.0000e+0
RAAN
43.7194°
Arg perigee
136.6024°
Mean anomaly
226.6286°
Rev number
7,647

§ Raw data

INMARSAT 4-F2 (SOUTHPA*)1 28899U 05044A   26262.73553122 -.00000262  00000+0  00000+0 0  99942 28899   5.2178  43.7194 0002398 136.6024 226.6286  1.00272555 76476

JSON: /api/v1/satellites/28899 · /tle

For live sub-satellite position, see the globe view (requires WebGL).

§ Visibility from observer

Set your observer location to see the next 7 days of passes ≥ 10°. The values pass through the URL so the page stays shareable.

No JS? Fill the form by hand. The geolocation button needs JavaScript.